User: anonymous   Login
Location: Ayer Observatory
(42.2600°N, 71.0700°W)
Time: 10:46:53
(UTC-04:00)
Language:

UWE-3 - Orbit

View from above orbital plane
View from above orbital plane
View from above satellite
View from above satellite

Ground track
Ground track

The orbit data is extracted from the following two-line orbital elements,

1 39446U 13066AG  19197.43717702  .00000129  00000-0  23913-4 0  9994
2 39446  97.5809 201.2896 0069255 330.7355  28.9985 14.78397239303366
Epoch (UTC): 16 July 2019 10:29:32
Eccentricity: 0.0069255
inclination: 97.5809°
perigee height: 586 km
apogee height: 683 km
right ascension of ascending node: 201.2896°
argument of perigee: 330.7355°
revolutions per day: 14.78397239
mean anomaly at epoch: 28.9985°
orbit number at epoch: 30336

The dashed part of the orbit path shows where the satellite is in the earth's shadow,  

DLR